Location: Newark
(46.6281°N, 5.7514°E)
Time: 18:47:35
(UTC+00:00)

N. Korean satellite - Visible Passes

Search period start: 23 October 2019 00:00
Search period end: 02 November 2019 00:00
Orbit: 455 x 508 km, 97.2° (Epoch: 22 October)

Date Brightness Start Highest point End Pass type
(mag) Time Alt. Az. Time Alt. Az. Time Alt. Az.
23 Oct 8.6 05:06:18 10° NNE 05:09:39 34° E 05:13:01 10° SSE visible
23 Oct 8.9 17:17:59 10° SSW 17:21:00 28° W 17:24:03 10° NW visible
24 Oct 9.8 04:41:36 10° NE 04:44:12 18° E 04:46:47 10° SE visible
26 Oct 7.4 05:23:32 10° NNE 05:27:10 56° E 05:30:48 10° S visible
26 Oct 9.8 17:36:06 10° SW 17:38:32 18° W 17:41:01 10° NW visible
27 Oct 9.0 04:58:32 10° NE 05:01:46 28° E 05:04:59 10° SSE visible
27 Oct 8.4 17:09:52 10° SSW 17:13:03 35° W 17:16:19 10° NNW visible
28 Oct 10.1 04:34:03 10° NE 04:36:16 15° E 04:38:29 10° SE visible
29 Oct 6.6 05:40:55 10° NNE 05:44:36 87° WNW 05:48:19 10° SSW visible
29 Oct 10.3 17:54:53 10° WSW 17:56:07 11° W 17:57:19 10° WNW visible
30 Oct 7.9 05:15:41 10° NNE 05:19:15 45° E 05:22:50 10° S visible
30 Oct 9.4 17:27:47 10° SSW 17:30:33 22° W 17:33:22 10° NW visible
31 Oct 9.3 04:50:47 10° NE 04:53:49 23° E 04:56:51 10° SSE visible
31 Oct 7.9 17:01:45 10° S 17:05:05 44° W 17:08:30 10° NNW visible
01 Nov 10.3 04:26:36 10° ENE 04:28:17 13° E 04:29:58 10° ESE visible
